This demonstration page uses our WeatherBlox Daily Observations layout. Learn more.

38.88101, -77.10428

Hourly Observations for January 7, 2017

Temp ( °F °C ) Dew Point ( °F °C ) Humidity (%) Winds ( mph kmh ) Pressure ( in mb ) Visibility ( mi km ) Precip ( " mm )
12:52 am 00:52 Cloudy 27 -2.8 6 -14.4 41 41 N 15 24 30.3 1026 10 16.0934 0 0
1:52 am 01:52 Cloudy 27 -2.8 8 -13.3 45 45 N 12 19 30.31 1026 10 16.0934 0 0
2:52 am 02:52 Cloudy 26 -3.3 9 -12.8 48 48 NNE 13 20 30.31 1026 10 16.0934 0 0
3:52 am 03:52 Cloudy 25 -3.9 8 -13.3 48 48 N 15 24 30.3 1026 10 16.0934 0 0
4:17 am 04:17 Cloudy with Light Snow 25 -3.9 8 -13.3 48 48 N 13 20 30.3 1026 10 16.0934 0.001 0.001
4:52 am 04:52 Cloudy with Light Snow 24 -4.4 12 -11.1 60 60 N 16 26 30.28 1025 8 12.87472 0.001 0.001
5:32 am 05:32 Cloudy 25 -4 9 -13 50 50 NNE 17 28 30.27 1025 10 16.0934 0 0
5:52 am 05:52 Cloudy 24 -4.4 8 -13.3 50 50 N 16 26 30.27 1025 10 16.0934 0.001 0.001
6:15 am 06:15 Cloudy with Light Snow 25 -3.9 9 -12.8 50 50 N 15 24 30.27 1025 10 16.0934 0.001 0.001
6:52 am 06:52 Cloudy with Light Snow 24 -4.4 11 -11.7 57 57 NNE 15 24 30.27 1025 9 14.48406 0.001 0.001
7:52 am 07:52 Cloudy with Light Snow 24 -4.4 11 -11.7 57 57 NNE 15 24 30.31 1026 5 8.0467 0.001 0.001
8:52 am 08:52 Cloudy with Light Snow 24 -4.4 11 -11.7 57 57 N 12 19 30.33 1027 9 14.48406 0.001 0.001
9:52 am 09:52 Cloudy with Light Snow 23 -5 14 -10 68 68 NNW 16 26 30.32 1027 4 6.43736 0.001 0.001
10:52 am 10:52 Cloudy with Light Snow 24 -4.4 15 -9.4 68 68 NNW 16 26 30.28 1025 10 16.0934 0.001 0.001
11:52 am 11:52 Cloudy with Light Snow 23 -5 15 -9.4 72 72 N 16 26 30.26 1025 4 6.43736 0.001 0.001
11:57 am 11:57 Cloudy with Light Snow 23 -5 16 -8.9 74 74 N 18 30 30.27 1025 2.5 4.02335 0.001 0.001
12:01 pm 12:01 Cloudy with Light Snow 22 -5.6 16 -8.9 78 78 NNW 17 28 30.27 1025 1.5 2.41401 0.001 0.001
12:06 pm 12:06 Cloudy with Light Snow 21 -6 18 -8 86 86 NNW 16 26 30.24 1024 0.75 1.207005 0 0
12:17 pm 12:17 Cloudy with Light Snow 22 -5.6 18 -7.8 85 85 N 14 22 30.27 1025 1 1.60934 0.001 0.001
12:38 pm 12:38 Cloudy with Light Snow 21 -6 18 -8 86 86 NNW 13 20 30.24 1024 0.75 1.207005 0 0
12:45 pm 12:45 Cloudy with Light Snow 22 -5.6 17 -8.3 82 82 N 16 26 30.24 1024 1 1.60934 0.001 0.001
12:52 pm 12:52 Cloudy with Light Snow 22 -5.6 18 -7.8 85 85 NNW 15 24 30.24 1024 1.25 2.011675 0.001 0.001
1:47 pm 13:47 Cloudy with Light Snow 21 -6 18 -8 86 86 NNW 15 24 30.24 1024 2 3.21868 0.01 0.254
1:52 pm 13:52 Cloudy with Light Snow 22 -5.6 17 -8.3 82 82 NNW 15 24 30.23 1024 2 3.21868 0.01 0.254
1:56 pm 13:56 Cloudy with Light Snow 21 -6 18 -8 86 86 NNW 13 20 30.24 1024 1.75 2.816345 0 0
2:04 pm 14:04 Cloudy with Light Snow 23 -5 18 -8 80 80 NNW 15 24 30.24 1024 2 3.21868 0 0
2:11 pm 14:11 Cloudy with Light Snow 22 -5.6 16 -8.9 78 78 NNW 12 19 30.24 1024 3 4.82802 0.001 0.001
2:52 pm 14:52 Cloudy 24 -4.4 15 -9.4 68 68 NW 14 22 30.21 1023 8 12.87472 0.001 0.001
3:52 pm 15:52 Mostly Cloudy 25 -3.9 11 -11.7 55 55 NNW 18 30 30.23 1024 10 16.0934 0 0
4:52 pm 16:52 Mostly Cloudy 24 -4.4 9 -12.8 52 52 NNW 14 22 30.24 1024 10 16.0934 0 0
5:52 pm 17:52 Partly Cloudy 23 -5 8 -13.3 53 53 NNW 13 20 30.25 1024 10 16.0934 0 0
6:52 pm 18:52 Clear 23 -5 7 -13.9 50 50 NNW 13 20 30.27 1025 10 16.0934 0 0
7:52 pm 19:52 Clear 22 -5.6 7 -13.9 52 52 NNW 23 37 30.3 1026 10 16.0934 0 0
8:52 pm 20:52 Clear 21 -6.1 6 -14.4 52 52 NNW 17 28 30.32 1027 10 16.0934 0 0
9:52 pm 21:52 Clear 20 -6.7 5 -15 52 52 NW 15 24 30.34 1027 10 16.0934 0 0
10:52 pm 22:52 Mostly Clear 20 -6.7 5 -15 52 52 NW 12 19 30.35 1028 10 16.0934 0 0
11:52 pm 23:52 Partly Cloudy 20 -6.7 4 -15.6 50 50 NNW 10 17 30.36 1028 10 16.0934 0 0

Powered by AerisWeather